TVS3MR LKPR-LOWI

Flight info

Callsign TVS3MR
Flight time 0h 51m
Altitude 30000
Route DOBE5B/30 DOBEN DCT RUDAP P31 DOSEL/N0388F290 M736 TULSI TULSI3A
Aircraft A20N/M-SDE2E3FGHIRWXY/LB1

Departure

Time 2026-05-07 17:57
Airport Václav Havel Airport Prague (LKPR)

Arrival

Time 2026-05-07 18:49
Airport Innsbruck Airport (LOWI)
Time Latitude Longitude Altitude Speed Heading
2026-05-07 17:39 50.10711 14.26333 1175 ft 0 kts 215°
2026-05-07 17:47 50.10712 14.26334 1175 ft 1 kts 215°
2026-05-07 17:47 50.10724 14.26347 1175 ft 2 kts 215°
2026-05-07 17:47 50.10736 14.26360 1175 ft 2 kts 214°
2026-05-07 17:47 50.10745 14.26377 1175 ft 2 kts 259°
2026-05-07 17:48 50.10744 14.26399 1176 ft 0 kts 298°
2026-05-07 17:48 50.10741 14.26406 1177 ft 1 kts 306°
2026-05-07 17:48 50.10739 14.26409 1177 ft 0 kts 304°
2026-05-07 17:50 50.10739 14.26408 1177 ft 1 kts 304°
2026-05-07 17:51 50.10757 14.26369 1174 ft 7 kts 303°
2026-05-07 17:51 50.10795 14.26271 1170 ft 12 kts 295°
2026-05-07 17:51 50.10750 14.26177 1170 ft 12 kts 208°
2026-05-07 17:51 50.10684 14.26112 1173 ft 10 kts 214°
2026-05-07 17:52 50.10619 14.26043 1175 ft 13 kts 215°
2026-05-07 17:52 50.10521 14.25974 1179 ft 16 kts 174°
2026-05-07 17:52 50.10439 14.26084 1182 ft 15 kts 129°
2026-05-07 17:52 50.10372 14.26216 1186 ft 14 kts 125°
2026-05-07 17:53 50.10317 14.26335 1190 ft 12 kts 127°
2026-05-07 17:53 50.10256 14.26461 1195 ft 22 kts 126°
2026-05-07 17:53 50.10146 14.26689 1200 ft 26 kts 126°
2026-05-07 17:53 50.10043 14.26906 1202 ft 24 kts 127°
2026-05-07 17:54 50.09944 14.27105 1203 ft 22 kts 127°
2026-05-07 17:54 50.09849 14.27297 1203 ft 22 kts 131°
2026-05-07 17:54 50.09743 14.27461 1204 ft 20 kts 135°
2026-05-07 17:54 50.09642 14.27613 1205 ft 19 kts 136°
2026-05-07 17:55 50.09552 14.27755 1210 ft 16 kts 134°
2026-05-07 17:55 50.09473 14.27876 1214 ft 16 kts 136°
2026-05-07 17:55 50.09376 14.28023 1218 ft 21 kts 136°
2026-05-07 17:55 50.09273 14.28180 1223 ft 19 kts 135°
2026-05-07 17:56 50.09171 14.28255 1229 ft 14 kts 189°
2026-05-07 17:56 50.09097 14.28165 1232 ft 15 kts 232°
2026-05-07 17:56 50.09099 14.28054 1232 ft 8 kts 304°
2026-05-07 17:56 50.09206 14.27817 1228 ft 64 kts 307°
2026-05-07 17:57 50.09638 14.26920 1216 ft 140 kts 307°
2026-05-07 17:57 50.10067 14.26034 1434 ft 160 kts 305°
2026-05-07 17:57 50.10992 14.24176 2410 ft 170 kts 305°
2026-05-07 17:57 50.11715 14.22689 3075 ft 186 kts 304°
2026-05-07 17:58 50.12538 14.20966 3669 ft 210 kts 304°
2026-05-07 17:58 50.13456 14.19046 4155 ft 229 kts 305°
2026-05-07 17:58 50.14455 14.16967 4695 ft 250 kts 305°
2026-05-07 17:58 50.15503 14.14782 5105 ft 259 kts 303°
2026-05-07 17:59 50.16201 14.12222 5511 ft 260 kts 273°
2026-05-07 17:59 50.15857 14.09418 5958 ft 280 kts 242°
2026-05-07 17:59 50.14550 14.07087 6542 ft 298 kts 216°
2026-05-07 17:59 50.12705 14.05408 7145 ft 314 kts 210°
2026-05-07 18:00 50.10770 14.03727 7722 ft 323 kts 211°
2026-05-07 18:00 50.08812 14.02003 8300 ft 326 kts 211°
2026-05-07 18:00 50.06852 14.00257 8875 ft 328 kts 211°
2026-05-07 18:00 50.04885 13.98492 9450 ft 332 kts 211°
2026-05-07 18:01 50.02860 13.96666 10032 ft 344 kts 211°
2026-05-07 18:01 50.01459 13.95401 10421 ft 351 kts 211°
2026-05-07 18:01 49.98592 13.92804 11199 ft 364 kts 212°
2026-05-07 18:01 49.96395 13.90807 11775 ft 371 kts 211°
2026-05-07 18:02 49.91908 13.86741 12936 ft 376 kts 212°
2026-05-07 18:02 49.90411 13.85392 13320 ft 377 kts 212°
2026-05-07 18:02 49.87423 13.82708 14083 ft 379 kts 212°
2026-05-07 18:03 49.85192 13.80712 14648 ft 381 kts 212°
2026-05-07 18:03 49.82874 13.78636 15232 ft 383 kts 213°
2026-05-07 18:03 49.80593 13.76593 15804 ft 386 kts 213°
2026-05-07 18:03 49.78265 13.74507 16384 ft 388 kts 213°
2026-05-07 18:04 49.75938 13.72422 16960 ft 391 kts 213°
2026-05-07 18:04 49.73581 13.70313 17540 ft 394 kts 214°
2026-05-07 18:04 49.71205 13.68187 18120 ft 396 kts 214°
2026-05-07 18:04 49.68819 13.66055 18698 ft 399 kts 214°
2026-05-07 18:05 49.66404 13.63900 19278 ft 401 kts 215°
2026-05-07 18:05 49.64006 13.61763 19852 ft 403 kts 215°
2026-05-07 18:05 49.61568 13.59591 20433 ft 404 kts 216°
2026-05-07 18:05 49.59152 13.57442 21007 ft 406 kts 216°
2026-05-07 18:06 49.56670 13.55327 21587 ft 408 kts 214°
2026-05-07 18:06 49.54147 13.53329 22164 ft 410 kts 213°
2026-05-07 18:06 49.51627 13.51364 22737 ft 410 kts 214°
2026-05-07 18:06 49.49099 13.49392 23292 ft 411 kts 214°
2026-05-07 18:07 49.46545 13.47392 23794 ft 413 kts 215°
2026-05-07 18:07 49.43975 13.45375 24299 ft 414 kts 215°
2026-05-07 18:07 49.41431 13.43378 24797 ft 415 kts 216°
2026-05-07 18:07 49.38845 13.41347 25302 ft 416 kts 216°
2026-05-07 18:08 49.36303 13.39352 25798 ft 416 kts 216°
2026-05-07 18:08 49.33732 13.37335 26240 ft 418 kts 216°
2026-05-07 18:08 49.31150 13.35309 26666 ft 420 kts 217°
2026-05-07 18:08 49.28509 13.33234 27100 ft 422 kts 216°
2026-05-07 18:09 49.25917 13.31192 27524 ft 424 kts 216°
2026-05-07 18:09 49.23276 13.29115 27954 ft 425 kts 217°
2026-05-07 18:09 49.20652 13.27060 28378 ft 427 kts 217°
2026-05-07 18:09 49.18048 13.25026 28798 ft 428 kts 217°
2026-05-07 18:10 49.15374 13.22940 29226 ft 429 kts 217°
2026-05-07 18:10 49.12746 13.20896 29647 ft 430 kts 217°
2026-05-07 18:10 49.10073 13.18817 29975 ft 434 kts 218°
2026-05-07 18:11 49.04602 13.14554 30034 ft 447 kts 217°
2026-05-07 18:11 48.99151 13.10342 30038 ft 447 kts 217°
2026-05-07 18:12 48.93619 13.06080 30040 ft 448 kts 217°
2026-05-07 18:12 48.87968 13.01723 30038 ft 461 kts 217°
2026-05-07 18:13 48.83133 12.98043 30039 ft 462 kts 217°
2026-05-07 18:13 48.77422 12.93695 29785 ft 461 kts 217°
2026-05-07 18:13 48.74559 12.91516 29408 ft 456 kts 217°
2026-05-07 18:14 48.71746 12.89376 29033 ft 451 kts 217°
2026-05-07 18:14 48.68973 12.87266 28659 ft 447 kts 216°
2026-05-07 18:14 48.66244 12.85189 28288 ft 442 kts 216°
2026-05-07 18:14 48.63521 12.83119 27914 ft 438 kts 216°
2026-05-07 18:15 48.60812 12.81061 27471 ft 435 kts 216°
2026-05-07 18:15 48.58143 12.79036 26972 ft 429 kts 216°
2026-05-07 18:15 48.55477 12.77016 26468 ft 423 kts 216°
2026-05-07 18:15 48.52892 12.75059 25972 ft 418 kts 216°
2026-05-07 18:16 48.50259 12.73067 25460 ft 413 kts 215°
2026-05-07 18:16 48.47665 12.71107 24951 ft 409 kts 215°
2026-05-07 18:16 48.45134 12.69190 24448 ft 405 kts 214°
2026-05-07 18:16 48.42659 12.67326 24110 ft 400 kts 214°
2026-05-07 18:17 48.40169 12.65454 23746 ft 400 kts 214°
2026-05-07 18:17 48.37690 12.63590 23244 ft 396 kts 213°
2026-05-07 18:17 48.35249 12.61760 22743 ft 391 kts 213°
2026-05-07 18:17 48.32851 12.59963 22246 ft 386 kts 213°
2026-05-07 18:18 48.30478 12.58185 21748 ft 383 kts 213°
2026-05-07 18:18 48.28106 12.56409 21246 ft 379 kts 213°
2026-05-07 18:18 48.25754 12.54650 20744 ft 375 kts 212°
2026-05-07 18:18 48.23432 12.52915 20263 ft 371 kts 212°
2026-05-07 18:19 48.21135 12.51201 20055 ft 369 kts 212°
2026-05-07 18:19 48.18862 12.49508 20047 ft 370 kts 212°
2026-05-07 18:19 48.16542 12.47780 19693 ft 371 kts 212°
2026-05-07 18:19 48.14250 12.46074 19192 ft 366 kts 212°
2026-05-07 18:20 48.12015 12.44413 18697 ft 362 kts 211°
2026-05-07 18:20 48.09772 12.42748 18195 ft 359 kts 211°
2026-05-07 18:20 48.07545 12.41096 17693 ft 356 kts 211°
2026-05-07 18:20 48.05349 12.39468 17195 ft 353 kts 211°
2026-05-07 18:21 48.03163 12.37849 16695 ft 351 kts 210°
2026-05-07 18:21 48.00956 12.36214 16200 ft 366 kts 210°
2026-05-07 18:21 47.99177 12.34891 15816 ft 386 kts 209°
2026-05-07 18:21 47.96148 12.32640 15187 ft 391 kts 208°
2026-05-07 18:22 47.93717 12.30839 14684 ft 389 kts 208°
2026-05-07 18:22 47.92101 12.29646 14348 ft 388 kts 208°
2026-05-07 18:22 47.89033 12.27386 13708 ft 385 kts 208°
2026-05-07 18:22 47.86615 12.25618 13235 ft 382 kts 207°
2026-05-07 18:23 47.84217 12.23867 13051 ft 382 kts 207°
2026-05-07 18:23 47.81833 12.22127 13048 ft 383 kts 207°
2026-05-07 18:23 47.79463 12.20396 13045 ft 383 kts 207°
2026-05-07 18:23 47.77114 12.18681 13044 ft 383 kts 207°
2026-05-07 18:24 47.74706 12.16922 13043 ft 383 kts 208°
2026-05-07 18:24 47.72300 12.15165 13042 ft 383 kts 208°
2026-05-07 18:24 47.70121 12.13020 13018 ft 380 kts 225°
2026-05-07 18:24 47.68596 12.09851 13037 ft 380 kts 243°
2026-05-07 18:25 47.67621 12.06202 13047 ft 381 kts 249°
2026-05-07 18:25 47.66719 12.02486 13044 ft 381 kts 249°
2026-05-07 18:25 47.65815 11.98788 13043 ft 381 kts 249°
2026-05-07 18:25 47.64911 11.95145 13043 ft 381 kts 249°
2026-05-07 18:26 47.63983 11.91454 13042 ft 381 kts 249°
2026-05-07 18:26 47.63057 11.87796 13042 ft 381 kts 248°
2026-05-07 18:26 47.62108 11.84075 13042 ft 381 kts 248°
2026-05-07 18:26 47.61176 11.80433 13042 ft 381 kts 248°
2026-05-07 18:27 47.60244 11.76804 13042 ft 381 kts 248°
2026-05-07 18:27 47.59290 11.73100 13042 ft 381 kts 248°
2026-05-07 18:27 47.58348 11.69450 13042 ft 381 kts 248°
2026-05-07 18:27 47.57720 11.67022 13042 ft 381 kts 248°
2026-05-07 18:28 47.56457 11.62146 13043 ft 381 kts 248°
2026-05-07 18:28 47.55506 11.58485 13043 ft 381 kts 248°
2026-05-07 18:28 47.54561 11.54846 13042 ft 381 kts 248°
2026-05-07 18:28 47.53641 11.51315 13042 ft 381 kts 248°
2026-05-07 18:29 47.52685 11.47650 13042 ft 381 kts 248°
2026-05-07 18:29 47.51736 11.44018 13042 ft 381 kts 248°
2026-05-07 18:29 47.50790 11.40400 13042 ft 381 kts 248°
2026-05-07 18:29 47.49833 11.36749 13046 ft 381 kts 248°
2026-05-07 18:30 47.49242 11.34496 13038 ft 382 kts 248°
2026-05-07 18:30 47.47895 11.29359 13041 ft 386 kts 248°
2026-05-07 18:30 47.46930 11.25679 13042 ft 386 kts 248°
2026-05-07 18:30 47.45956 11.21980 13042 ft 386 kts 248°
2026-05-07 18:31 47.44976 11.18263 13042 ft 386 kts 248°
2026-05-07 18:31 47.44009 11.14606 13042 ft 386 kts 248°
2026-05-07 18:31 47.43026 11.10895 13042 ft 386 kts 248°
2026-05-07 18:31 47.42046 11.07203 13042 ft 386 kts 248°
2026-05-07 18:32 47.41055 11.03477 13042 ft 386 kts 248°
2026-05-07 18:32 47.40086 10.99840 13044 ft 386 kts 248°
2026-05-07 18:32 47.39098 10.96138 13042 ft 386 kts 248°
2026-05-07 18:32 47.38110 10.92441 13042 ft 386 kts 248°
2026-05-07 18:33 47.37126 10.88767 13042 ft 386 kts 248°
2026-05-07 18:33 47.36140 10.85091 13042 ft 386 kts 248°
2026-05-07 18:33 47.35149 10.81401 13043 ft 386 kts 248°
2026-05-07 18:33 47.34164 10.77743 13037 ft 376 kts 248°
2026-05-07 18:34 47.33223 10.74257 13038 ft 355 kts 248°
2026-05-07 18:34 47.32344 10.71002 13035 ft 335 kts 247°
2026-05-07 18:34 47.31495 10.67868 13040 ft 323 kts 247°
2026-05-07 18:34 47.30663 10.64800 13042 ft 322 kts 247°
2026-05-07 18:35 47.29776 10.61819 13030 ft 322 kts 238°
2026-05-07 18:35 47.28216 10.59503 13024 ft 324 kts 211°
2026-05-07 18:35 47.26141 10.58602 13023 ft 319 kts 185°
2026-05-07 18:35 47.24035 10.59312 13020 ft 313 kts 155°
2026-05-07 18:36 47.22439 10.61432 13031 ft 310 kts 128°
2026-05-07 18:36 47.21645 10.64402 13030 ft 319 kts 100°
2026-05-07 18:36 47.21833 10.67670 12821 ft 328 kts 72°
2026-05-07 18:36 47.23048 10.70494 12334 ft 330 kts 44°
2026-05-07 18:37 47.24776 10.72678 11847 ft 331 kts 37°
2026-05-07 18:37 47.26591 10.74751 11349 ft 332 kts 37°
2026-05-07 18:37 47.28394 10.76891 10846 ft 334 kts 41°
2026-05-07 18:37 47.28733 10.77358 10742 ft 335 kts 45°
2026-05-07 18:38 47.30247 10.82390 9915 ft 334 kts 86°
2026-05-07 18:38 47.30334 10.84963 9544 ft 333 kts 90°
2026-05-07 18:38 47.30359 10.89446 9048 ft 327 kts 90°
2026-05-07 18:38 47.30419 10.92709 8994 ft 312 kts 89°
2026-05-07 18:39 47.30522 10.95843 8729 ft 307 kts 87°
2026-05-07 18:39 47.30658 10.98988 8333 ft 301 kts 86°
2026-05-07 18:39 47.30799 11.01976 7892 ft 289 kts 86°
2026-05-07 18:39 47.30942 11.04906 7353 ft 282 kts 87°
2026-05-07 18:40 47.30815 11.07743 6759 ft 276 kts 107°
2026-05-07 18:40 47.30102 11.10193 6378 ft 262 kts 117°
2026-05-07 18:40 47.29299 11.12558 5811 ft 253 kts 117°
2026-05-07 18:40 47.28545 11.14801 5214 ft 244 kts 117°
2026-05-07 18:41 47.27806 11.17028 4609 ft 237 kts 117°
2026-05-07 18:41 47.27391 11.18280 4307 ft 231 kts 117°
2026-05-07 18:41 47.26481 11.21039 3771 ft 207 kts 115°
2026-05-07 18:41 47.25983 11.22894 3563 ft 182 kts 107°
2026-05-07 18:42 47.25687 11.24600 3386 ft 164 kts 103°
2026-05-07 18:42 47.25465 11.26167 3161 ft 149 kts 99°
2026-05-07 18:42 47.25355 11.27669 2867 ft 146 kts 92°
2026-05-07 18:42 47.25426 11.29136 2624 ft 145 kts 79°
2026-05-07 18:43 47.25605 11.30601 2385 ft 145 kts 80°
2026-05-07 18:43 47.25760 11.32047 2158 ft 144 kts 79°
2026-05-07 18:43 47.25923 11.33509 1934 ft 137 kts 79°
2026-05-07 18:43 47.26056 11.34793 1950 ft 126 kts 79°
2026-05-07 18:44 47.26150 11.35673 2196 ft 137 kts 79°
2026-05-07 18:44 47.26380 11.37701 2670 ft 174 kts 79°
2026-05-07 18:44 47.26465 11.39498 3346 ft 183 kts 105°
2026-05-07 18:44 47.25629 11.40866 3763 ft 191 kts 164°
2026-05-07 18:45 47.24415 11.40468 3844 ft 186 kts 232°
2026-05-07 18:45 47.24061 11.38711 4006 ft 181 kts 263°
2026-05-07 18:45 47.23924 11.36942 4341 ft 174 kts 262°
2026-05-07 18:45 47.23771 11.35246 4497 ft 163 kts 264°
2026-05-07 18:46 47.23639 11.33614 4576 ft 150 kts 263°
2026-05-07 18:46 47.23497 11.32140 4374 ft 143 kts 261°
2026-05-07 18:46 47.23308 11.30716 3959 ft 144 kts 258°
2026-05-07 18:46 47.23235 11.29279 3611 ft 138 kts 278°
2026-05-07 18:47 47.23658 11.28002 3319 ft 144 kts 311°
2026-05-07 18:47 47.24517 11.27342 2938 ft 149 kts 359°
2026-05-07 18:47 47.25348 11.28030 2620 ft 146 kts 75°
2026-05-07 18:47 47.25503 11.29537 2589 ft 150 kts 78°
2026-05-07 18:48 47.25657 11.31023 2306 ft 145 kts 82°
2026-05-07 18:48 47.25815 11.32486 2075 ft 142 kts 82°
2026-05-07 18:48 47.25962 11.33856 1919 ft 125 kts 81°
2026-05-07 18:48 47.26067 11.34837 1902 ft 58 kts 82°
2026-05-07 18:49 47.26104 11.35175 1898 ft 23 kts 82°
2026-05-07 18:49 47.25997 11.35270 1898 ft 19 kts 168°
2026-05-07 18:49 47.25886 11.35299 1898 ft 14 kts 170°